Flag for U.S.A. Weather past 2 weeks in Ocala, Florida, U.S.A.

64 °F

Passing clouds.

Feels Like: 64 °F
Forecast: 61 / 80 °F
Wind: No wind

Location: Ocala Municipal

Current Time: Nov 29, 2015 at 11:44:32 PM

Latest Report: Nov 29, 2015 at 10:35 PM

Visibility: 10 mi

Pressure: 30.10 "Hg

Humidity: 78%

Dew point: 57 °F

Location of OcalaLocation

Historic Weather in Ocala — Graph


Ocala temperature yesterday

Maximum temperature yesterday: 79 °F (at 12:50 PM)
Minimum temperature yesterday: 63 °F (at 12:35 AM)
Average temperature yesterday: 66 °F

Past Weeks' High & Low Weather Summary

High88 °F (Nov 18, 1:50 PM)94% (Nov 16, 4:35 AM)30.44 "Hg (Nov 16, 4:35 AM)
Low37 °F (Nov 23, 6:15 AM)28% (Nov 23, 2:50 PM)29.84 "Hg (Nov 22, 2:55 AM)
Average65 °F78%30.15 "Hg
* Reported Nov 14 10:15 PM — Nov 29 10:15 PM, Ocala, Weather by CustomWeather, © 2015

Note: Actual official high and low records may vary slightly from our data, if they occured in-between our weather recording intervals... More about our weather records


Ocala weather history for previous 24 hours

Time TempWeatherWind HumidityBarometerVisibility
10:15 PM
Sun, Nov 29
66 °FOvercast.No wind73%30.11 "Hg10 mi
9:55 PM66 °FOvercast.3 mph73%30.11 "Hg10 mi
9:35 PM66 °FPassing clouds.No wind73%30.12 "Hg10 mi
9:15 PM66 °FPassing clouds.No wind73%30.11 "Hg10 mi
7:55 PM66 °FClear.No wind68%30.11 "Hg10 mi
6:50 PM70 °FPassing clouds.No wind64%30.10 "Hg10 mi
5:50 PM73 °FPassing clouds.No wind65%30.08 "Hg10 mi
4:50 PM75 °FPartly sunny.3 mph61%30.07 "Hg10 mi
3:50 PM75 °FBroken clouds.9 mph61%30.07 "Hg10 mi
2:50 PM77 °FPartly sunny.6 mph54%30.08 "Hg10 mi
1:50 PM77 °FPartly sunny.7 mph57%30.09 "Hg10 mi
12:50 PM77 °FScattered clouds.5 mph54%30.12 "Hg10 mi
11:50 AM77 °FPassing clouds.6 mph54%30.15 "Hg10 mi
10:50 AM75 °FSunny.9 mph61%30.18 "Hg10 mi
9:50 AM72 °FSunny.6 mph65%30.18 "Hg10 mi
8:50 AM66 °FSunny.5 mph73%30.18 "Hg10 mi
7:50 AM61 °FSunny.No wind88%30.16 "Hg10 mi
6:50 AM61 °FClear.No wind88%30.17 "Hg10 mi
6:35 AM61 °FClear.No wind88%30.16 "Hg10 mi
6:15 AM61 °FClear.No wind88%30.16 "Hg10 mi
5:55 AM59 °FClear.3 mph88%30.15 "Hg10 mi
5:35 AM61 °FClear.No wind88%30.16 "Hg10 mi
5:15 AM61 °FClear.No wind88%30.15 "Hg10 mi
4:35 AM61 °FClear.3 mph88%30.15 "Hg10 mi
4:15 AM61 °FClear.6 mph88%30.16 "Hg10 mi
3:55 AM61 °FClear.N/A88%30.16 "Hg10 mi
3:35 AM63 °FClear.3 mph88%30.16 "Hg10 mi
2:55 AM63 °FPassing clouds.6 mph94%30.18 "Hg10 mi
1:35 AM64 °FLow clouds.5 mph88%30.18 "Hg10 mi
12:15 AM63 °FClear.No wind88%30.19 "Hg10 mi
11:55 PM
Sat, Nov 28
63 °FClear.No wind94%30.19 "Hg10 mi
11:35 PM63 °FClear.No wind94%30.19 "Hg10 mi
Weather by CustomWeather, © 2015

See weather overviewHow to use our weather pages